Weather History for KWST - October, 2012

Change the Weather History Date:

Monday, October 22, 2012

  Actual Average (KGON) Record (KGON)
Temperature  
Mean Temperature 58 °F -  
Max Temperature 66 °F 61 °F 74 °F (1975)
Min Temperature 51 °F 40 °F 25 °F (1974)
Degree Days  
Heating Degree Days 8    
Growing Degree Days 8 (Base 50)    
Moisture  
Dew Point 41 °F    
Average Humidity 55    
Maximum Humidity 66    
Minimum Humidity 40    
Precipitation  
Precipitation 0.00 in - - ()
Sea Level Pressure  
Sea Level Pressure 29.98 in    
Wind  
Wind Speed 4 mph (WNW)    
Max Wind Speed 13 mph    
Max Gust Speed 24 mph    
Visibility 10 miles    
Events      
Averages and records for this station are not official NWS values.
T = Trace of Precipitation, MM = Missing Value Source: NWS Daily Summary

Daily Weather History Graph

Daily Weather History Graph

Search for Another Location

Airport or City:

Trip Planner

Search our weather history database for the weather conditions in past years. The results will help you decide how hot, cold, wet, or windy it might be!

Date:

Astronomy

Oct. 22, 2012 Rise Set
Actual Time 7:07 AM EDT 5:55 PM EDT
Civil Twilight 6:39 AM EDT 6:23 PM EDT
Nautical Twilight 6:07 AM EDT 6:55 PM EDT
Astronomical Twilight 5:34 AM EDT 7:27 PM EDT
Moon 2:05 PM EDT (10/22) No Moon Set
Length of Visible Light 11h 44m
Length of Day
10h 47m
First Quarter, 56% of the Moon is Illuminated
Oct 22
First Quarter
Oct 29
Full
Nov 6
Last Quarter
Nov 13
New
Nov 20
First Quarter

Hourly Weather History & Observations

Time (EDT) Temp. Dew Point Humidity Pressure Visibility Wind Dir Wind Speed Gust Speed Precip Events Conditions
12:53 AM 54.0 °F 39.9 °F 59% 29.96 in 10.0 mi Calm Calm - N/A   Clear
1:53 AM 54.0 °F 39.0 °F 57% 29.96 in 10.0 mi West 3.5 mph - N/A   Clear
2:53 AM 54.0 °F 39.9 °F 59% 29.96 in 10.0 mi West 4.6 mph - N/A   Clear
3:53 AM 53.1 °F 39.9 °F 61% 29.96 in 10.0 mi Variable 4.6 mph - N/A   Clear
4:53 AM 52.0 °F 39.9 °F 63% 29.97 in 10.0 mi Variable 4.6 mph - N/A   Clear
5:53 AM 51.1 °F 39.9 °F 66% 29.99 in 10.0 mi WNW 4.6 mph - N/A   Clear
6:53 AM 51.1 °F 39.9 °F 66% 29.99 in 10.0 mi Variable 3.5 mph - N/A   Clear
7:53 AM 52.0 °F 41.0 °F 66% 30.01 in 10.0 mi Variable 4.6 mph - N/A   Clear
8:53 AM 55.9 °F 42.1 °F 60% 30.02 in 10.0 mi Variable 5.8 mph - N/A   Clear
10:53 AM 61.0 °F 42.1 °F 50% 30.01 in 10.0 mi WNW 8.1 mph - N/A   Clear
11:53 AM 63.0 °F 41.0 °F 45% 30.00 in 10.0 mi WNW 9.2 mph 17.3 mph N/A   Clear
12:53 PM 63.0 °F 41.0 °F 45% 29.97 in 10.0 mi West 12.7 mph 20.7 mph N/A   Clear
1:53 PM 64.0 °F 41.0 °F 43% 29.96 in 10.0 mi NW 11.5 mph 24.2 mph N/A   Clear
2:53 PM 64.9 °F 39.9 °F 40% 29.95 in 10.0 mi Variable 6.9 mph 23.0 mph N/A   Clear
3:53 PM 64.9 °F 39.9 °F 40% 29.95 in 10.0 mi NW 6.9 mph 17.3 mph N/A   Clear
4:53 PM 64.9 °F 41.0 °F 42% 29.95 in 10.0 mi Variable 4.6 mph - N/A   Clear
5:53 PM 63.0 °F 41.0 °F 45% 29.97 in 10.0 mi West 3.5 mph - N/A   Clear
6:53 PM 61.0 °F 42.1 °F 50% 29.99 in 10.0 mi Calm Calm - N/A   Clear
7:53 PM 55.9 °F 43.0 °F 62% 30.00 in 10.0 mi West 3.5 mph - N/A   Clear
8:53 PM 57.9 °F 42.1 °F 56% 30.01 in 10.0 mi Calm Calm - N/A   Clear
9:53 PM 57.0 °F 42.1 °F 57% 30.01 in 10.0 mi West 4.6 mph - N/A   Clear
10:53 PM 54.0 °F 42.1 °F 64% 30.02 in 10.0 mi West 3.5 mph - N/A   Clear
11:53 PM 54.0 °F 42.1 °F 64% 30.04 in 10.0 mi WNW 3.5 mph - N/A   Clear